Theta_e
303 302 302 302 302 302 302 303 304 305 306 306 306 309 312 311 311 310 309 308 308 309 309 309 309 308 308 309 308 308 308 307 308 308 308 308 309 309 309 308 309 310 310 311 310 312 313 313 315 316 316 318 319 319 320 320 322 324 325 328 329 329 328 324 322 328 331 329 329 329 329 328 327 326 328 329 326 325 322 322 322 320 317 318 318 317 322
303 303 303 302 302 302 302 302 303 304 305 306 306 309 312 311 312 311 308 308 308 309 309 308 308 308 308 309 308 308 309 308 308 308 307 308 309 308 308 308 310 310 309 310 310 311 313 313 315 316 316 317 319 320 320 319 321 322 323 325 327 327 328 325 322 325 326 324 324 326 326 327 326 326 328 328 328 328 326 325 326 321 319 319 317 316 321
303 303 303 303 302 302 301 302 302 303 305 306 307 309 311 311 311 310 309 308 308 308 309 308 308 308 308 308 308 308 308 308 308 307 307 309 309 308 308 308 309 310 309 309 310 311 312 314 315 316 316 317 318 318 318 319 320 321 322 324 324 326 330 327 324 323 322 319 319 321 323 325 325 326 327 327 328 328 325 323 321 320 323 323 318 317 323
303 303 303 303 302 302 301 301 302 303 304 305 307 309 311 311 310 310 309 309 308 309 309 308 307 307 307 308 308 307 308 308 308 308 308 309 309 308 308 309 309 309 309 309 310 310 312 314 315 315 315 315 315 316 316 318 320 321 322 324 324 326 329 329 328 326 324 324 326 327 327 325 322 324 325 326 328 328 327 322 319 322 325 322 323 326 327
303 304 303 303 302 302 301 301 301 302 303 304 307 309 311 310 309 309 309 308 309 309 308 308 308 307 307 308 308 308 308 308 307 308 309 308 309 309 308 308 309 308 309 309 310 311 312 313 313 314 314 313 313 314 315 318 320 321 321 323 324 326 327 329 330 329 329 333 334 332 331 326 323 324 324 326 327 327 326 322 322 329 324 319 331 340 329
304 304 303 303 302 302 301 301 301 301 302 303 307 309 310 309 309 309 308 308 308 308 308 308 308 307 308 308 308 308 307 307 307 308 308 309 309 309 307 307 308 308 308 309 310 311 312 312 312 312 312 312 312 313 314 316 318 318 320 321 323 325 325 327 329 328 329 333 333 332 332 330 328 327 325 326 326 326 325 323 327 333 326 323 337 342 331
304 304 303 302 302 302 302 301 300 301 301 302 307 309 309 308 309 309 308 308 309 308 308 308 308 307 308 308 307 308 308 307 307 308 308 308 309 309 307 307 308 308 308 309 310 310 311 311 311 311 311 311 311 312 313 315 315 315 318 321 322 323 325 328 328 326 327 330 331 331 332 329 329 329 327 327 327 326 326 327 329 332 330 330 336 337 333
304 303 303 302 302 302 301 301 300 300 300 302 307 308 308 308 308 308 308 308 308 309 308 308 308 307 307 307 308 308 308 307 307 308 308 307 308 309 308 308 308 308 308 309 309 310 310 310 310 311 311 310 311 312 312 313 313 314 317 320 321 322 325 329 329 325 325 329 331 331 331 330 327 328 329 327 327 327 326 327 328 330 330 331 334 336 335
303 302 302 302 302 302 301 301 300 300 301 304 307 307 308 307 307 307 307 307 308 308 308 308 307 307 307 307 307 307 307 307 307 308 308 308 308 308 308 308 308 308 309 309 310 310 310 310 310 310 310 310 310 311 311 311 312 314 316 317 319 322 324 327 327 324 324 327 329 329 330 330 326 325 329 328 326 326 326 327 329 329 329 330 330 331 333
302 302 302 302 302 302 301 301 300 300 303 305 306 307 307 306 305 306 306 306 308 308 308 308 307 307 307 307 307 306 307 308 308 308 308 308 309 309 308 308 308 308 308 309 309 310 310 310 310 309 309 310 310 310 311 311 311 313 315 315 318 321 323 324 324 323 323 326 328 328 328 326 323 325 329 329 329 330 327 328 330 330 330 329 327 330 336
301 301 302 302 302 301 301 300 300 302 304 305 305 306 306 305 305 305 305 305 307 308 308 308 307 307 307 307 307 306 306 308 308 308 308 308 308 309 308 308 308 308 309 309 308 309 309 309 309 309 309 310 310 310 311 311 312 313 314 315 317 318 320 322 323 323 322 324 326 327 324 322 324 329 330 330 330 330 328 328 329 330 330 330 331 336 339
302 302 301 301 301 300 300 302 303 303 304 305 305 305 305 305 305 305 305 305 307 307 308 308 308 308 307 307 307 307 306 307 307 308 308 308 308 309 308 308 308 308 308 309 308 308 309 309 309 309 310 310 311 311 311 311 312 313 314 314 315 317 318 321 323 322 322 324 325 324 322 324 328 330 330 330 330 330 330 331 330 329 330 331 334 336 337
301 301 301 301 301 302 303 305 305 305 305 305 306 305 305 304 304 305 305 304 305 307 307 307 308 308 308 308 307 308 307 307 307 308 308 308 308 308 308 308 308 308 308 308 308 308 308 309 310 311 311 311 311 311 311 311 311 312 313 313 314 315 317 319 321 322 322 323 323 323 325 327 328 330 330 330 330 329 329 329 330 332 331 332 334 335 336
301 302 303 304 305 306 307 307 307 306 306 306 306 306 305 304 304 305 304 304 305 306 306 307 308 308 308 308 307 307 308 307 308 308 308 308 308 308 308 308 308 308 308 308 309 309 309 310 311 312 312 312 312 312 311 311 311 311 312 313 313 314 316 318 320 322 322 321 321 323 325 325 327 329 330 330 330 329 329 327 329 331 331 331 334 333 333
306 306 307 307 308 308 308 307 307 307 307 307 307 307 307 305 304 304 304 304 304 305 306 306 307 308 308 308 308 307 307 307 308 308 308 308 309 308 308 308 308 308 308 308 309 309 309 310 311 312 313 312 312 313 312 311 312 311 312 312 313 314 315 318 320 321 322 321 321 322 322 322 324 327 329 331 329 329 331 327 327 333 334 330 331 333 335
309 309 308 308 308 308 308 308 307 307 308 308 308 308 308 307 306 305 304 304 303 304 306 307 307 307 307 308 308 307 307 307 307 307 308 309 309 309 308 308 308 308 308 309 309 309 309 310 311 312 313 312 313 313 313 312 312 312 312 312 312 313 314 317 317 319 320 321 321 321 321 322 327 329 329 329 328 331 331 324 328 340 343 337 334 334 337
309 309 309 309 308 308 308 308 308 308 308 308 308 308 308 308 306 305 305 305 304 304 306 306 306 307 307 307 308 308 307 308 307 307 308 308 308 309 309 308 308 308 308 309 309 309 309 310 311 311 312 312 312 313 314 313 312 312 312 312 312 312 314 315 317 318 319 320 320 321 322 324 327 328 328 328 330 332 327 323 330 341 343 339 339 338 337
310 310 310 310 309 309 308 308 308 308 308 308 308 308 308 308 307 306 306 306 305 304 305 305 305 306 307 307 307 308 308 308 307 307 308 308 309 309 309 308 308 308 308 309 309 309 309 309 311 312 312 312 312 313 313 314 314 314 314 313 312 313 313 314 316 317 318 319 320 320 324 325 324 326 330 331 328 327 326 327 335 341 340 339 341 340 341
311 310 310 310 310 309 309 308 308 308 308 308 308 308 308 308 308 307 307 307 306 305 305 306 306 306 307 307 307 308 307 307 308 308 307 308 309 308 308 308 309 308 308 309 309 309 309 309 310 312 311 311 312 313 313 313 314 315 315 313 312 313 313 313 315 315 317 319 319 319 325 327 324 326 331 331 331 334 333 334 338 338 338 341 341 341 343
310 310 310 310 309 309 308 308 308 308 308 308 308 308 308 308 308 307 307 307 306 305 305 306 306 306 307 307 307 308 307 307 308 308 307 307 308 308 308 308 309 309 309 310 310 309 309 309 309 311 311 311 312 312 313 313 313 314 315 315 314 314 314 313 313 314 316 318 318 320 326 327 325 327 331 330 332 334 333 333 335 336 338 339 340 341 343
309 309 309 308 308 308 308 308 307 308 308 308 308 308 308 308 308 308 307 306 305 305 306 306 306 306 306 306 307 307 307 308 308 308 308 308 307 307 308 308 308 309 310 310 309 309 310 309 310 311 311 311 312 312 312 313 313 313 314 315 316 317 317 315 315 315 315 317 319 321 323 324 323 326 327 327 328 329 328 329 331 334 335 335 337 339 340
307 307 307 308 309 309 309 308 308 308 308 308 309 309 308 308 308 308 308 307 306 306 306 307 307 307 306 306 307 307 307 308 307 307 308 308 308 307 308 309 309 309 309 309 309 309 310 310 310 311 311 310 311 311 312 312 313 313 313 314 315 316 317 317 318 318 317 318 319 320 320 322 322 323 323 323 324 324 325 326 328 329 332 333 335 337 337
306 307 308 309 309 309 309 309 308 308 308 308 309 309 309 309 308 308 308 308 307 307 307 307 307 307 307 307 307 307 307 307 307 307 308 308 308 308 308 309 309 309 309 309 309 310 310 310 310 310 310 310 311 311 312 313 312 312 312 313 314 315 315 316 317 318 318 318 318 319 320 321 322 321 320 321 322 322 323 325 327 328 329 329 331 333 335
308 308 309 309 309 310 309 309 308 308 308 308 308 309 309 309 309 308 308 308 308 307 308 308 308 308 308 308 308 308 308 308 308 308 308 308 308 308 308 308 308 308 308 309 309 310 310 310 310 310 310 310 311 310 311 312 312 312 312 312 312 313 314 314 315 316 316 317 318 319 319 320 321 320 319 320 321 321 323 325 325 326 326 327 328 329 331
309 309 310 310 310 311 310 310 310 309 309 309 309 309 309 309 309 309 308 308 308 308 308 308 308 308 308 308 308 308 308 308 307 307 308 308 308 308 308 308 308 308 308 309 309 310 310 310 310 310 310 311 311 311 311 311 312 313 313 313 313 314 314 313 314 315 316 317 318 318 317 317 318 318 318 318 319 320 323 324 324 323 324 325 326 327 327
310 310 311 311 312 311 312 312 312 311 311 311 310 309 310 310 310 310 309 308 307 307 307 307 308 308 308 308 308 308 308 307 307 307 307 307 307 307 308 308 308 308 308 309 309 310 310 310 310 310 310 311 311 311 311 311 311 312 313 313 313 314 314 314 314 315 315 316 317 316 316 316 317 317 317 318 319 320 321 322 322 322 323 323 324 325 325
312 312 313 313 312 312 313 313 313 312 312 312 311 310 311 311 310 310 310 309 308 307 307 308 308 309 308 308 309 308 308 308 307 307 307 307 307 307 307 308 308 308 308 309 309 309 310 310 310 310 310 311 311 311 311 312 312 311 312 312 313 313 313 313 314 314 314 315 315 316 316 316 317 317 317 317 319 320 320 320 321 321 322 322 322 324 325
313 314 314 313 313 313 313 314 313 313 312 312 311 311 311 311 310 310 309 309 308 308 308 309 309 309 309 309 309 309 308 308 307 307 307 307 307 308 308 308 308 308 308 309 309 309 310 310 310 310 311 311 310 311 311 312 312 312 312 312 312 312 313 313 313 313 314 314 315 315 316 316 316 316 316 316 317 318 319 319 320 320 321 322 322 322 324
314 314 313 313 313 314 314 314 313 313 312 312 312 312 312 312 311 310 310 309 308 308 308 309 309 309 310 309 309 309 309 308 308 308 308 308 308 308 308 308 308 308 308 308 309 309 309 309 310 310 311 310 310 310 310 311 311 312 312 312 312 312 312 312 312 313 313 314 314 314 315 315 315 316 316 316 316 317 318 319 319 320 320 320 320 321 322
314 314 313 313 314 314 314 314 313 313 313 313 314 314 313 313 312 310 309 309 309 308 308 308 309 309 310 310 310 310 309 309 309 309 308 308 308 308 308 308 308 308 309 309 309 309 309 309 310 309 309 310 310 309 310 311 311 312 312 313 313 313 313 313 313 313 313 313 313 314 314 315 315 315 316 316 316 317 318 318 318 319 319 319 319 320 321
314 314 314 314 314 314 314 313 313 312 313 313 314 315 314 314 312 310 309 309 308 308 308 309 309 310 310 310 310 310 310 310 309 309 309 309 309 309 309 308 308 308 309 309 309 309 309 309 310 310 310 310 310 310 310 310 311 312 313 313 313 313 314 314 314 314 314 314 314 314 314 315 315 315 316 316 316 316 316 317 317 318 318 319 320 321 321
314 314 314 314 314 314 315 314 314 313 313 312 312 312 312 312 311 309 309 308 308 308 309 309 309 310 311 311 311 311 311 310 310 310 310 310 310 309 309 309 309 309 309 309 309 310 310 310 310 310 310 310 310 310 310 310 311 312 312 313 313 313 313 313 313 313 314 314 314 315 315 315 315 315 316 316 315 315 316 316 317 317 318 319 320 321 321
314 314 315 315 315 315 316 316 316 315 314 314 313 311 310 310 309 309 308 308 308 308 309 309 309 310 311 311 311 311 311 311 311 311 311 310 310 310 310 309 309 309 309 309 309 309 309 309 309 309 309 309 309 310 310 311 311 312 312 312 312 312 312 312 312 312 312 313 314 314 315 315 315 315 315 315 315 315 316 316 316 317 317 318 319 320 321
315 316 317 317 316 315 315 316 316 316 316 316 314 312 310 310 309 308 308 308 308 308 309 309 309 310 310 311 313 312 311 311 311 311 312 311 310 310 310 309 309 309 309 309 308 308 308 309 309 309 308 309 309 309 310 310 311 310 310 309 309 308 309 309 310 311 312 313 313 314 314 315 315 315 315 315 316 316 316 316 316 316 317 317 319 319 321
317 318 318 318 317 316 315 315 315 316 317 317 315 313 311 311 309 309 308 309 309 309 309 309 309 309 310 313 314 313 312 312 312 312 313 312 310 310 310 310 309 308 308 308 307 307 308 308 308 308 309 309 310 309 309 309 309 308 307 307 306 307 308 309 310 311 312 313 314 314 315 315 315 315 316 316 316 316 316 316 316 316 316 317 318 319 320
318 320 320 319 318 318 317 315 315 316 318 317 316 314 313 312 310 309 309 309 309 310 309 309 310 310 311 312 313 313 312 313 313 312 312 313 312 311 310 310 309 309 308 308 308 307 307 307 308 309 309 310 310 309 308 307 306 306 306 307 308 309 310 311 312 313 313 314 315 315 315 315 316 316 316 316 316 316 316 316 316 316 317 317 318 318 320
320 321 321 321 320 321 320 317 315 316 317 317 316 316 315 314 312 310 309 309 310 310 309 309 311 312 311 311 312 313 313 313 314 314 313 313 313 312 311 310 310 310 309 309 309 308 308 308 308 308 309 309 309 307 306 306 306 307 308 310 311 312 313 315 316 316 316 316 316 317 316 316 316 316 316 317 317 317 317 317 317 317 317 318 318 318 320
321 321 321 321 321 321 320 318 316 316 317 317 317 316 315 314 313 313 312 312 312 311 310 311 313 312 311 312 313 313 313 314 315 315 314 313 313 313 312 312 311 311 311 311 310 310 310 309 308 308 309 308 307 306 307 308 309 310 310 311 312 313 315 317 319 319 319 318 318 318 318 317 316 317 317 317 317 317 317 317 317 317 317 318 318 319 321
322 322 321 321 320 319 318 317 317 318 318 318 317 317 316 315 315 317 317 316 315 314 313 314 315 314 313 315 315 314 314 315 315 314 314 313 314 314 314 313 312 312 311 311 311 311 311 310 308 308 309 307 306 308 310 310 310 310 310 311 312 313 315 318 320 321 321 320 320 319 319 318 317 317 317 317 317 317 318 318 317 318 318 318 318 319 321
321 321 320 320 321 320 318 317 317 319 320 320 319 319 320 319 319 320 319 318 318 318 317 317 317 315 314 315 316 315 314 315 314 315 315 314 313 314 314 314 313 312 311 311 312 312 311 310 309 309 309 308 308 310 311 311 310 311 310 310 311 312 313 315 318 320 321 321 321 320 319 318 318 318 318 318 318 318 318 318 318 318 318 318 319 320 321
319 319 319 318 320 321 320 318 319 320 321 321 320 320 320 320 320 320 319 318 318 318 318 318 319 317 316 316 317 316 315 315 315 315 316 314 313 314 314 313 313 312 310 310 311 311 310 309 309 309 309 310 310 311 312 311 311 312 310 310 310 311 312 313 314 316 318 320 321 321 321 320 319 319 319 319 319 319 319 319 319 319 319 319 320 321 321
316 317 317 318 320 321 321 320 320 320 319 318 318 318 318 318 319 320 319 319 319 319 318 318 318 318 317 317 317 317 317 316 316 317 316 315 315 315 313 312 313 312 311 311 310 309 309 309 309 309 310 311 310 311 312 312 313 312 311 310 310 311 311 311 312 313 314 316 318 319 320 321 321 322 322 321 321 321 320 320 319 319 319 320 321 321 322
316 317 318 319 320 320 320 318 317 317 317 316 316 317 318 318 319 320 320 319 319 319 318 318 318 318 318 318 318 318 317 317 317 318 317 315 316 315 312 311 311 311 311 311 310 309 309 309 310 310 311 311 310 310 311 312 313 313 312 311 310 310 310 310 311 311 312 313 315 316 318 319 321 323 323 322 322 321 319 319 319 319 320 321 322 323 324
318 317 318 318 317 317 317 316 315 316 316 315 315 316 317 318 318 319 319 318 318 318 317 317 318 319 320 319 319 318 318 318 318 318 316 314 313 313 311 311 311 311 311 310 310 310 310 310 310 310 310 310 310 310 310 311 312 313 312 311 310 310 310 309 310 310 311 311 312 313 315 316 319 321 322 322 322 322 322 322 322 321 321 323 324 325 326
318 317 317 316 316 315 316 316 315 315 315 315 315 316 316 317 318 317 317 317 317 318 318 317 316 317 319 319 318 318 318 319 318 317 314 313 312 312 311 312 311 311 311 310 310 311 310 310 310 310 309 309 310 310 310 310 311 312 312 311 311 310 310 310 309 309 310 310 311 311 312 313 314 316 317 318 320 321 323 324 324 323 324 325 325 325 326
317 316 316 316 315 315 315 315 314 314 315 315 315 316 317 317 318 317 317 318 318 319 319 317 316 316 318 318 317 316 316 316 316 315 313 313 312 312 311 312 311 311 311 311 310 311 311 310 310 310 309 309 310 309 309 310 310 311 311 311 311 310 310 310 310 309 309 309 309 310 310 310 311 311 312 314 314 315 318 320 320 321 322 323 322 323 324
317 316 315 314 314 314 314 314 314 314 315 315 315 316 316 317 317 317 317 317 318 318 318 317 317 317 318 317 316 316 315 314 314 313 313 313 312 312 311 312 311 311 311 311 311 310 310 310 310 310 309 309 309 309 309 309 309 310 311 311 311 310 310 310 310 309 309 308 308 308 308 309 309 309 310 310 311 312 313 314 315 315 315 315 315 317 319
316 315 314 314 314 315 315 314 315 315 314 314 315 315 315 316 316 316 316 317 317 317 317 317 317 317 317 316 316 316 315 315 314 313 312 313 313 312 312 312 311 311 311 311 311 311 311 310 310 310 309 309 309 308 308 308 308 309 310 311 311 310 310 310 310 309 309 308 308 307 307 307 307 308 308 309 309 309 310 310 311 311 311 311 312 312 313
314 314 314 315 315 315 315 315 315 315 314 314 314 314 314 315 315 315 315 316 316 316 316 316 316 316 316 315 315 315 315 315 314 313 312 313 313 312 311 312 312 311 311 312 312 311 310 310 310 310 310 309 309 308 308 308 308 308 309 310 311 310 310 309 309 309 309 308 307 307 307 306 306 307 307 308 308 308 308 308 308 309 309 309 309 310 310
314 314 314 314 314 315 315 314 314 314 314 313 314 313 313 314 314 314 314 315 315 315 316 316 315 315 314 314 314 314 314 314 314 313 313 313 313 312 312 312 311 311 312 312 311 310 310 310 310 310 310 309 309 308 308 307 307 307 307 309 310 310 310 310 309 309 309 309 308 307 306 306 306 306 306 306 306 306 307 307 307 308 308 308 308 308 308
314 314 314 314 314 314 314 314 313 314 314 313 313 313 313 313 313 313 313 314 315 315 315 315 315 314 313 313 313 313 314 314 313 313 313 313 313 313 312 312 312 312 312 311 310 309 309 309 309 309 309 309 309 308 308 307 307 306 306 307 308 309 310 310 309 309 309 309 309 308 307 306 306 306 306 306 306 306 306 306 306 306 306 306 306 307 307
315 314 314 314 314 313 314 314 313 313 313 313 313 313 313 313 313 313 313 313 314 314 314 314 314 313 312 313 313 313 313 313 313 313 312 313 313 313 313 313 313 312 311 310 310 309 309 309 309 309 309 308 308 308 307 307 307 306 306 306 307 308 309 309 310 309 308 308 308 308 308 308 307 306 306 306 306 305 305 305 305 305 305 305 305 305 305
Wind_Speed
25 26 27 29 30 30 31 31 33 34 35 36 34 25 19 17 16 15 13 16 19 15 6 6 6 6 9 12 12 12 11 11 10 11 12 10 9 10 10 12 12 11 10 11 13 13 13 12 12 15 17 14 11 15 18 18 15 8 6 6 8 9 8 9 8 9 9 18 20 19 21 20 17 16 15 13 13 13 11 8 7 8 10 9 7 5 2
25 26 27 28 29 29 30 29 30 31 32 33 30 22 18 20 23 18 16 19 16 10 6 7 6 7 11 12 12 12 10 10 11 11 12 10 9 9 10 12 12 11 11 11 12 12 11 10 12 14 14 15 19 22 20 16 13 8 6 7 5 4 7 9 7 7 9 16 16 15 18 17 13 14 17 17 17 18 14 9 8 7 10 12 8 5 4
25 26 27 28 28 28 28 27 27 28 29 30 26 20 19 20 18 16 18 18 13 7 6 8 7 9 12 12 12 11 9 9 11 12 12 12 12 11 11 14 14 12 11 11 11 11 10 10 13 13 11 16 21 26 29 21 12 9 12 13 10 6 5 7 7 9 11 13 12 12 14 13 12 14 21 22 21 20 15 9 8 7 8 11 9 5 6
25 26 27 28 28 28 27 27 26 25 25 28 26 19 18 18 11 11 17 18 13 9 9 11 8 8 11 11 11 11 9 9 11 12 9 10 12 14 13 14 14 12 12 12 10 10 10 9 10 10 11 13 14 26 37 26 12 14 17 13 10 6 7 9 11 11 7 4 3 5 10 14 16 18 22 24 23 21 15 9 8 7 7 9 7 4 9
25 26 27 27 27 28 27 26 26 24 23 24 22 17 17 15 9 10 13 13 11 11 13 13 9 9 11 9 8 12 12 9 10 9 6 6 8 11 11 11 11 11 13 13 10 11 11 10 10 12 13 13 16 28 34 23 19 25 17 10 7 5 7 12 15 14 10 4 2 5 4 10 19 23 23 24 25 23 17 13 11 8 7 8 7 7 10
25 26 27 27 26 27 27 26 26 24 22 21 18 16 15 12 11 15 15 10 9 10 14 16 13 12 12 9 9 12 10 9 9 7 5 5 5 6 9 11 12 13 14 12 10 11 10 8 10 11 12 14 16 22 25 21 28 30 14 6 6 5 8 12 15 16 15 14 9 6 7 7 9 19 24 23 25 26 21 16 14 11 6 7 8 6 7
25 26 26 27 27 26 26 26 26 24 22 19 15 13 15 13 12 15 16 13 13 16 18 20 17 12 10 9 9 10 9 10 10 7 7 7 4 4 8 12 14 14 14 11 8 8 8 7 8 9 12 14 12 13 16 18 26 27 13 5 7 3 6 11 14 16 16 16 14 9 7 11 11 13 23 24 23 25 23 18 17 15 9 8 9 5 6
25 26 26 27 27 26 26 27 27 26 22 16 11 10 12 12 11 14 15 15 16 19 19 17 14 10 9 8 7 9 11 12 11 8 9 10 7 5 9 13 15 15 14 12 8 7 8 9 9 9 10 11 10 9 9 12 20 22 13 8 9 5 5 9 10 11 13 16 17 13 10 10 12 14 17 23 22 24 24 19 18 15 10 12 13 8 6
26 26 26 27 27 27 27 28 28 27 21 13 10 10 9 12 15 16 15 10 11 14 16 14 11 8 8 8 7 9 12 14 13 10 9 11 10 9 11 12 12 13 14 13 10 9 9 10 12 13 12 11 11 10 11 14 16 16 13 11 10 7 5 7 7 7 9 12 17 16 8 7 12 16 15 16 17 19 20 17 16 15 13 14 13 11 8
28 27 27 27 27 28 29 29 28 26 18 12 12 12 11 14 17 18 14 8 7 11 12 12 11 8 9 11 11 12 14 15 14 9 6 8 10 9 11 12 10 10 12 13 13 12 11 13 15 16 16 17 17 17 20 21 16 12 12 11 9 8 6 5 6 7 9 11 15 15 6 4 11 12 10 7 10 15 19 20 18 16 15 12 9 10 8
28 28 27 27 28 29 30 30 28 23 16 12 15 16 16 17 18 18 13 6 7 10 9 8 9 9 13 16 15 14 15 16 15 10 6 8 9 6 8 11 10 8 10 14 17 17 16 17 18 19 21 21 21 20 22 23 19 14 10 8 9 10 9 5 5 6 9 12 13 13 10 8 8 7 7 9 11 10 11 16 20 19 16 12 9 11 8
28 28 28 29 30 31 31 29 25 22 17 13 16 19 19 17 18 16 10 4 6 9 7 8 10 14 18 20 16 14 15 15 16 14 12 12 12 8 9 11 10 8 11 15 18 19 19 18 17 18 19 20 21 20 20 20 18 16 13 10 9 10 9 6 6 6 7 9 10 12 11 9 5 4 10 13 8 6 10 12 21 23 17 11 11 13 10
29 29 30 31 32 31 30 27 23 20 17 14 16 20 19 17 18 18 12 6 6 7 8 11 17 19 20 18 16 16 18 18 18 17 15 13 12 11 11 11 9 10 13 15 18 18 15 12 11 11 13 14 15 17 19 18 17 17 15 11 8 9 8 6 6 6 5 7 11 10 7 8 9 9 14 14 6 5 11 8 8 12 9 8 8 10 10
30 31 31 31 32 30 27 24 22 20 18 15 16 18 17 16 19 20 15 8 5 8 10 9 11 15 17 18 17 16 17 17 16 14 13 12 12 11 11 12 11 12 13 14 14 12 9 7 7 7 7 8 8 11 14 16 16 16 15 11 8 8 7 5 7 7 5 5 9 8 5 8 11 11 13 11 6 5 8 3 1 1 4 9 6 6 7
30 30 30 30 30 29 25 23 21 20 18 17 17 18 17 17 19 21 18 11 7 9 11 11 10 12 14 18 18 14 12 12 11 11 11 11 12 12 10 11 12 12 12 12 10 7 6 6 6 6 4 4 6 7 9 9 11 15 16 12 9 8 7 6 7 6 5 5 6 9 9 9 8 9 12 8 4 4 6 1 3 3 3 3 6 6 4
30 30 30 30 29 27 24 22 21 19 17 17 19 20 19 17 19 20 20 18 10 5 8 11 11 13 15 18 19 15 10 7 8 9 7 7 11 14 10 10 12 12 11 10 7 5 6 6 6 6 5 4 5 5 6 7 8 12 14 13 12 10 8 6 6 6 7 6 5 7 9 6 3 11 14 8 4 3 5 4 4 8 14 11 6 5 8
30 30 30 29 28 27 24 23 21 19 18 18 20 21 20 18 19 18 20 21 16 13 17 17 13 14 14 13 14 12 10 10 10 8 6 6 12 15 12 10 11 12 12 8 5 4 6 5 5 7 5 5 6 6 5 6 6 9 12 12 11 9 6 6 7 6 7 7 6 4 5 2 12 11 10 12 12 9 8 6 2 10 17 20 16 4 9
30 30 29 29 28 26 24 22 21 20 18 17 19 21 21 19 18 17 19 22 18 16 24 24 19 19 16 11 12 13 13 13 11 9 8 7 7 11 14 12 9 9 11 8 4 4 5 5 5 5 4 5 5 5 6 6 4 3 6 10 8 6 6 6 7 7 7 7 7 5 4 6 17 15 8 3 9 14 9 4 2 11 14 19 19 12 12
29 29 28 28 27 25 23 22 20 19 18 17 18 22 21 19 18 17 19 23 19 14 16 15 13 18 18 15 17 18 15 14 11 7 7 5 5 13 17 11 7 7 7 5 4 4 5 5 5 4 3 3 3 4 7 6 6 8 3 8 8 6 6 5 6 8 7 5 7 6 4 7 17 16 21 22 5 8 3 3 6 9 14 19 19 17 18
28 27 26 26 25 24 23 22 20 19 18 17 17 21 22 19 18 17 16 19 20 21 21 19 19 22 22 19 20 19 16 16 12 7 6 6 11 16 12 5 6 7 4 3 4 4 3 5 6 4 3 4 3 3 6 6 5 7 5 5 5 3 4 6 6 6 7 7 7 5 2 8 18 16 15 17 8 2 2 8 9 10 14 16 18 19 19
25 25 24 24 24 24 23 23 21 19 18 16 16 19 21 18 16 15 15 15 17 18 17 15 16 20 22 21 22 20 18 18 15 11 11 13 14 11 6 4 8 7 3 3 4 3 3 4 5 3 3 5 4 3 5 6 4 3 3 3 3 1 2 3 4 4 5 7 3 1 2 6 14 15 9 9 9 6 6 8 9 11 13 14 15 16 17
24 24 24 25 25 25 25 24 22 20 18 16 15 17 18 17 15 13 11 13 17 18 15 12 11 14 16 18 19 19 19 20 19 16 16 17 15 11 10 11 10 6 4 5 3 2 3 4 4 4 4 4 5 5 5 5 3 0 0 2 3 3 3 2 2 3 4 5 4 4 6 6 12 17 12 9 9 8 9 10 9 11 13 14 14 14 15
24 25 26 27 27 27 26 24 21 19 17 15 15 16 16 15 15 13 10 11 16 18 18 16 15 15 16 18 19 19 20 20 20 18 17 16 14 13 12 10 9 7 6 5 3 4 5 4 4 6 5 4 6 6 6 5 2 3 3 3 5 7 7 6 5 5 7 7 6 7 8 6 8 11 12 10 8 9 10 10 9 10 12 12 13 14 14
26 27 28 29 28 28 26 23 20 18 17 16 16 17 16 15 14 12 10 11 13 14 13 13 14 15 15 15 13 12 13 15 16 15 14 13 13 11 7 7 10 11 9 9 8 6 6 6 5 5 5 5 6 6 6 4 2 3 4 5 5 6 8 7 6 5 6 5 3 2 8 9 6 7 10 11 10 9 10 9 8 10 11 11 12 13 12
28 29 29 29 28 27 23 19 17 17 16 15 14 13 12 11 10 8 7 8 10 9 7 8 11 13 12 11 10 9 10 11 12 12 11 12 13 13 10 10 12 12 11 11 11 9 8 6 5 5 6 5 4 5 6 5 3 3 4 4 4 5 8 7 8 7 7 8 8 9 15 18 15 11 11 13 14 11 9 9 9 10 10 11 11 11 11
29 29 29 29 27 23 17 15 15 15 13 11 10 7 4 5 6 6 6 7 7 6 5 8 11 10 8 9 10 9 9 9 10 11 11 11 12 13 14 15 14 12 12 12 12 11 10 7 4 5 5 4 5 6 5 6 7 7 6 5 6 7 6 6 8 8 8 10 12 12 13 15 15 12 12 13 14 11 9 9 10 12 13 14 14 13 12
28 28 29 28 23 16 13 14 15 14 11 8 4 3 3 2 3 4 5 6 5 3 3 6 8 8 7 9 10 9 9 9 9 10 11 11 11 12 14 14 14 13 13 12 11 10 9 6 5 6 7 7 8 8 8 8 8 8 7 7 8 8 7 6 6 7 7 8 9 10 9 9 11 12 12 10 11 12 13 14 13 13 15 16 17 17 16
28 28 27 23 16 12 13 14 13 12 9 6 5 7 6 4 3 2 2 5 6 4 5 8 10 10 8 8 7 6 7 8 9 10 12 12 12 12 13 14 14 14 12 11 10 8 7 6 7 8 7 7 7 7 9 10 8 7 7 7 8 8 8 7 7 8 9 11 14 14 11 10 13 16 15 13 13 14 16 18 17 15 15 16 18 20 20
27 26 22 15 11 12 13 12 11 9 7 6 6 6 5 4 6 5 3 1 5 5 7 10 9 7 6 5 3 3 4 6 8 9 10 10 11 12 12 13 13 12 12 12 11 9 8 9 10 10 8 8 6 6 7 8 7 7 8 9 11 11 12 13 13 12 14 19 22 21 18 16 17 19 18 16 14 14 16 18 20 20 18 17 18 20 21
25 21 15 11 10 12 12 10 8 7 7 6 4 1 2 2 5 6 3 1 2 4 4 5 5 5 6 6 4 3 4 5 7 8 9 9 10 10 10 11 11 11 11 11 11 10 10 11 11 11 12 13 9 5 6 7 7 8 11 13 13 12 14 17 18 17 19 22 24 24 23 22 20 20 20 18 15 14 15 18 20 22 22 21 21 22 22
20 15 11 10 11 11 10 9 8 10 12 11 7 4 1 2 4 5 3 2 2 3 3 5 7 7 5 4 2 2 3 5 6 7 8 9 10 10 10 11 10 10 10 11 11 10 9 9 10 11 12 13 8 4 6 8 8 10 12 16 18 19 21 23 24 25 26 25 24 24 26 25 23 21 22 21 17 16 17 19 21 22 22 21 20 20 21
15 11 9 10 11 10 11 12 13 14 14 12 8 5 4 2 3 3 0 3 4 2 1 4 5 4 2 1 2 3 3 4 5 5 6 8 9 9 10 11 10 9 10 10 8 7 7 8 9 10 11 12 8 5 7 8 9 12 19 25 28 28 28 28 29 29 30 28 25 22 23 25 24 23 23 23 21 19 19 20 20 19 18 18 19 19 21
10 8 8 11 12 12 12 14 15 15 14 12 10 8 6 2 0 1 4 5 4 1 1 3 3 3 2 2 2 3 4 3 3 3 4 6 7 6 7 10 9 8 8 7 4 3 5 7 6 7 11 11 7 4 6 8 10 17 26 31 34 35 36 37 36 35 34 32 28 24 25 26 26 24 25 25 24 23 22 22 21 20 18 19 20 21 20
7 7 7 10 13 14 15 15 14 14 13 11 9 8 7 5 4 3 4 4 3 2 1 2 3 3 4 1 0 2 5 5 3 2 4 4 4 4 4 4 4 4 4 3 3 4 5 6 5 6 8 7 4 4 5 7 12 22 30 35 41 46 46 43 41 38 36 34 31 31 32 32 30 28 28 27 25 25 25 24 23 22 21 21 21 20 19
5 6 7 7 10 14 16 16 14 12 9 6 6 7 7 5 4 5 6 4 2 1 2 3 2 3 5 3 1 2 5 4 1 2 1 0 1 3 2 1 1 1 2 2 3 3 3 3 4 4 4 3 3 4 4 8 17 27 32 36 43 47 43 40 40 39 36 33 31 32 33 33 31 31 31 31 29 28 27 26 26 25 23 23 22 20 19
5 7 5 4 6 10 13 15 13 8 4 5 7 8 7 5 4 6 7 6 4 3 1 2 2 3 4 3 2 4 6 3 1 1 2 2 1 1 1 2 2 1 1 1 2 3 3 3 3 3 2 2 3 5 10 16 23 29 34 38 43 43 40 40 42 41 37 33 32 31 31 32 33 32 31 30 31 30 29 29 28 27 25 25 24 21 19
6 8 6 5 5 4 5 9 12 9 7 9 10 9 6 5 4 3 4 4 5 5 2 1 3 5 4 2 3 7 7 4 2 2 2 2 1 2 3 2 1 1 0 1 2 3 4 4 3 2 2 2 6 13 21 24 26 29 33 38 39 37 33 33 34 34 33 31 31 32 32 31 32 32 31 30 30 29 29 30 29 28 26 26 24 22 20
7 8 7 6 6 3 2 8 13 12 10 11 10 7 5 3 1 1 2 1 2 4 3 3 4 5 4 3 4 7 6 4 5 4 3 3 2 1 2 1 1 0 1 1 2 4 4 2 2 3 3 5 12 20 24 25 26 30 35 40 42 39 30 23 20 23 27 27 26 29 31 32 32 32 32 31 30 29 30 30 29 27 27 26 24 22 20
9 8 6 6 5 4 5 8 12 12 11 9 7 4 3 4 3 2 3 3 2 2 2 3 5 5 4 3 5 8 5 3 5 6 5 5 4 1 1 2 2 1 1 1 2 4 3 0 1 3 3 5 13 22 27 29 32 36 41 46 49 43 33 25 18 10 16 25 27 27 27 29 32 33 32 31 31 31 31 30 29 28 28 26 24 22 20
7 5 4 5 4 4 7 10 12 12 10 6 5 4 4 4 1 1 2 2 2 3 2 3 3 3 2 2 3 6 5 4 4 4 4 5 3 1 1 1 2 2 3 3 3 3 3 2 2 4 4 8 18 28 34 35 35 38 43 48 50 46 40 36 33 24 12 10 21 26 25 25 26 27 28 28 29 30 30 30 30 29 28 26 23 22 21
5 2 3 4 2 4 7 11 11 9 6 5 4 4 3 1 3 4 3 3 3 4 3 4 3 1 2 1 2 2 3 3 1 1 2 3 1 1 1 1 2 1 3 5 6 4 2 3 4 4 7 15 26 34 36 37 38 41 44 47 49 49 47 46 44 39 32 21 8 10 19 25 26 26 25 26 27 28 28 28 29 29 28 25 23 21 21
7 4 3 4 4 4 7 8 7 5 4 5 3 3 3 4 4 4 4 5 5 3 3 4 5 2 1 2 3 2 1 1 2 3 2 1 1 2 3 2 1 2 4 5 7 4 3 6 7 6 10 20 30 36 36 37 38 41 44 47 49 49 50 51 51 48 44 38 29 18 6 7 16 21 24 26 28 28 27 26 26 25 24 22 21 21 20
9 8 5 5 5 4 4 5 5 2 1 3 3 3 4 5 4 2 2 5 7 6 3 2 2 3 1 1 2 2 2 2 2 3 1 1 1 1 2 3 3 4 3 4 4 5 6 7 8 8 13 21 29 35 37 38 38 40 42 45 48 49 51 53 54 53 52 48 42 36 29 20 7 6 14 17 20 23 23 21 21 22 22 21 21 21 20
11 10 7 4 4 4 2 4 5 3 2 3 5 5 6 7 6 4 4 4 6 7 6 6 5 4 1 1 3 3 2 2 3 2 2 3 3 2 3 4 4 4 3 3 4 5 6 6 8 14 21 25 28 32 37 40 40 41 41 42 44 48 51 53 54 54 54 53 50 48 45 39 29 18 10 6 8 15 19 19 19 20 21 19 19 20 21
9 9 7 4 4 4 3 3 5 5 5 5 5 6 6 7 7 7 6 4 3 5 7 11 13 12 7 4 2 2 2 1 2 1 3 4 4 3 4 5 4 4 4 4 4 5 5 6 10 19 25 28 28 30 34 38 40 41 41 42 43 44 46 48 50 52 52 52 52 53 52 50 45 40 35 30 23 18 16 17 19 21 20 18 18 20 24
6 7 6 3 4 5 5 3 3 4 5 5 6 7 8 9 9 11 11 10 9 8 5 6 9 12 10 6 3 2 4 4 2 1 3 4 3 4 5 5 4 4 4 4 4 5 6 7 12 19 25 28 28 28 30 34 37 40 41 41 42 42 42 42 44 47 49 49 51 53 53 51 51 50 46 43 42 43 41 34 30 30 31 30 28 30 33
6 6 4 3 3 5 6 5 4 6 7 9 11 12 12 12 13 14 15 16 17 14 7 2 5 8 7 5 4 3 4 5 4 3 4 4 3 3 4 4 3 3 4 4 4 4 5 9 15 20 24 26 27 28 29 30 33 37 39 39 39 40 40 41 41 43 44 46 48 50 51 50 51 50 48 45 47 51 52 50 48 47 45 43 42 42 43
7 7 5 3 3 4 6 7 7 8 11 13 13 14 14 14 14 16 18 18 18 16 12 8 6 6 5 5 5 4 4 5 4 3 4 4 3 3 4 3 3 3 3 4 3 3 5 11 17 20 22 25 26 27 29 29 30 32 34 37 37 38 38 39 39 40 40 42 43 44 46 47 48 47 46 46 48 49 49 51 53 51 50 48 47 47 48
8 8 8 7 5 6 9 10 9 9 12 14 14 15 15 15 15 17 19 19 19 17 13 11 9 7 6 5 4 4 5 5 4 3 4 4 3 3 3 3 4 4 3 3 4 5 8 13 16 18 21 23 25 25 26 28 28 29 30 32 34 35 35 36 37 37 37 39 39 39 40 42 44 44 45 47 48 46 46 48 50 49 49 48 47 47 48
6 8 10 10 8 9 11 11 8 8 11 14 15 16 16 16 17 18 19 19 19 17 12 10 8 7 6 6 4 3 5 5 4 3 5 5 4 4 4 3 3 4 4 5 7 10 11 14 16 18 19 21 23 24 25 26 27 27 27 27 29 30 31 33 35 35 35 36 37 37 37 38 39 40 42 44 44 43 45 46 46 44 44 44 43 44 45
5 8 11 12 11 10 11 10 9 8 10 13 15 17 17 17 18 19 19 19 17 14 10 9 8 6 5 5 5 4 4 4 4 4 5 4 3 3 3 3 3 4 5 7 11 12 13 15 16 17 18 20 21 22 23 23 24 25 25 25 25 26 27 29 31 33 33 33 33 34 34 35 34 34 36 38 39 41 43 43 41 40 40 39 39 39 39
8 8 9 11 12 12 11 11 11 11 12 13 15 16 16 16 17 19 19 18 15 12 10 10 8 5 4 5 5 4 3 3 4 5 5 5 4 3 3 3 5 7 8 9 11 12 13 15 17 16 17 19 20 21 21 21 22 23 24 24 23 24 25 25 26 28 30 31 31 30 30 30 30 31 33 34 35 37 37 37 36 36 36 36 35 35 35
Wind_Direction
353 355 356 356 357 356 357 358 357 356 354 353 357 354 338 328 320 324 359 9 344 323 315 353 334 316 342 335 320 325 326 323 329 331 333 336 335 331 318 309 311 314 321 322 318 316 310 300 299 315 332 343 344 345 344 334 324 321 331 304 238 223 238 234 249 281 230 190 185 192 205 210 205 205 212 212 201 198 208 211 195 202 209 213 238 236 158
349 352 353 352 354 356 355 356 357 358 356 353 350 343 332 320 305 313 -0 7 341 321 330 345 329 321 332 326 321 330 329 328 333 332 335 336 332 331 319 314 316 315 316 307 304 316 309 297 320 337 334 326 327 337 343 331 321 337 1 342 319 266 239 224 232 264 221 187 183 189 199 211 214 200 203 216 211 197 203 214 202 204 207 203 215 219 150
345 347 349 349 350 353 353 354 356 357 358 355 349 337 323 315 306 318 346 348 332 321 332 335 323 322 326 322 323 328 325 336 336 324 333 347 340 329 318 315 313 307 307 302 299 308 306 310 338 349 336 320 323 337 339 321 300 334 344 326 314 301 259 235 223 226 209 188 190 196 191 200 218 206 197 209 217 203 195 208 208 199 195 200 213 210 139
340 342 345 345 346 348 350 351 352 355 357 354 350 340 323 318 319 332 340 338 324 309 321 327 320 323 326 320 322 323 319 333 330 318 341 7 342 321 314 313 311 309 315 313 303 310 320 336 348 342 334 324 324 334 330 315 306 335 327 308 302 295 278 266 240 231 224 162 158 206 198 194 209 213 199 199 214 212 198 201 211 195 178 195 215 178 137
336 338 340 341 343 343 344 346 348 350 354 352 349 340 326 322 325 332 339 336 321 317 326 324 315 320 324 313 311 319 319 324 324 317 342 9 334 315 312 316 317 317 321 318 310 317 334 353 348 335 335 330 328 331 323 317 343 342 312 281 303 293 272 265 246 243 246 226 23 354 285 215 207 211 205 195 203 212 208 202 197 188 181 188 188 161 155
332 334 335 336 338 339 339 341 342 343 348 352 349 337 329 327 319 322 330 327 315 322 322 313 311 319 320 311 306 310 308 306 315 326 331 328 330 326 318 320 322 319 320 318 316 323 335 350 343 338 339 333 332 331 321 329 353 346 313 282 329 294 273 272 249 246 248 241 253 304 317 301 238 218 211 198 198 206 211 209 192 185 200 183 163 156 156
328 329 331 331 332 334 336 335 336 337 340 346 344 329 328 328 313 315 326 320 307 309 309 307 311 314 311 307 303 299 298 304 313 327 321 309 325 339 314 315 320 320 319 316 316 326 330 332 334 333 331 328 328 328 321 332 347 342 321 325 353 318 283 283 257 248 251 250 254 256 275 307 306 249 216 200 198 203 207 214 200 189 205 190 159 142 142
324 326 327 327 327 329 331 331 331 329 332 342 339 320 324 327 315 314 320 311 301 303 308 308 306 305 305 308 301 291 298 314 321 323 319 316 323 318 305 312 317 316 317 312 308 322 318 306 309 313 316 321 321 320 317 323 332 333 334 349 350 331 280 276 267 257 257 256 249 239 243 273 298 285 233 203 198 200 202 212 207 190 198 197 171 158 159
321 323 324 325 325 326 327 328 327 326 330 338 324 306 308 310 308 312 314 306 297 302 307 306 301 300 306 311 311 305 308 314 314 314 316 311 306 303 306 313 312 309 313 310 308 320 311 292 293 298 297 297 296 296 300 307 316 325 336 343 336 321 282 265 265 256 257 257 239 224 227 267 281 282 252 213 204 204 197 204 212 196 190 194 179 169 165
320 321 322 323 323 322 324 325 325 325 331 328 302 291 295 302 308 314 314 301 289 295 302 304 302 305 311 311 311 309 308 305 301 303 309 294 289 296 304 304 299 302 309 309 312 317 303 287 287 287 283 279 277 278 284 291 299 310 325 332 325 326 325 291 275 259 250 256 244 226 209 256 265 260 242 231 248 229 199 194 209 207 195 194 186 177 159
320 320 321 322 320 320 321 322 323 323 322 309 290 284 286 293 302 311 312 296 281 290 295 296 302 310 311 311 312 307 303 302 302 307 306 293 291 283 279 284 285 292 302 303 306 305 293 284 281 276 274 270 267 271 277 282 288 291 300 315 320 330 334 309 299 285 253 254 255 236 209 213 242 241 227 247 268 255 215 199 201 203 205 199 180 178 160
320 319 321 319 318 319 319 319 319 317 314 303 288 283 283 285 289 294 293 275 286 295 291 288 301 311 309 305 306 305 303 303 303 301 294 295 301 289 261 261 266 287 305 303 301 301 295 289 281 273 268 261 255 256 260 269 279 279 280 295 312 325 325 308 306 293 255 245 242 231 218 215 230 258 249 250 264 309 302 249 202 193 198 187 164 172 169
319 319 319 317 317 317 317 317 317 314 314 310 291 285 285 279 277 279 278 272 276 278 280 286 293 300 306 306 305 305 304 301 298 295 290 289 296 296 286 281 287 306 313 307 304 306 301 292 287 280 269 257 252 249 246 250 264 271 276 284 294 307 314 318 311 285 248 223 218 220 228 221 216 234 241 237 233 275 288 275 190 172 159 128 137 169 158
318 318 317 316 315 316 315 316 316 314 316 313 296 287 284 274 269 271 272 269 265 272 281 292 295 298 304 307 306 306 304 301 298 294 290 291 294 293 295 299 307 312 309 304 304 305 302 296 299 299 277 248 242 245 238 237 242 251 261 268 275 290 296 308 305 279 250 235 223 218 230 219 213 230 238 223 207 257 276 296 81 180 141 126 145 187 171
317 317 316 314 314 314 315 314 313 312 312 308 295 286 283 276 269 267 264 259 266 277 266 256 269 289 302 305 307 308 304 303 307 299 298 314 311 297 296 305 309 310 307 304 301 296 300 303 300 306 297 250 241 240 230 224 223 228 238 246 254 269 276 296 310 291 277 272 236 217 216 207 207 239 249 234 203 276 297 206 180 288 329 159 193 188 130
317 315 314 314 314 314 314 312 310 310 307 301 293 287 285 280 271 268 264 255 252 262 242 233 254 281 294 299 301 302 298 304 321 310 307 333 313 294 299 312 309 311 312 306 303 296 290 285 286 296 296 280 282 267 232 221 213 208 211 218 228 239 255 280 288 284 280 275 259 232 210 194 246 243 228 201 160 273 291 183 161 352 357 349 298 179 123
317 316 316 317 316 314 313 311 310 309 304 298 292 287 286 281 272 270 266 252 239 244 250 246 256 278 288 295 295 300 310 312 312 305 301 323 312 304 314 324 318 329 334 319 301 295 288 279 284 290 289 292 304 302 275 254 221 193 187 195 212 218 227 254 253 260 274 261 258 248 178 50 340 297 218 181 176 210 239 193 155 350 359 3 356 38 119
319 319 319 318 317 315 314 312 310 306 300 296 291 286 285 280 273 272 267 253 239 248 259 257 256 260 262 271 285 297 310 307 302 306 305 310 316 315 321 328 331 343 343 326 303 302 304 294 277 271 288 311 310 311 312 301 282 249 187 178 189 200 208 238 246 251 263 255 254 243 132 25 338 335 360 10 197 200 210 198 273 331 356 11 10 29 56
321 320 320 319 318 317 316 313 311 307 303 298 292 287 285 283 279 277 265 250 239 247 261 257 247 252 257 269 279 286 294 293 293 310 309 310 338 322 319 331 354 345 337 331 317 313 313 310 300 283 288 320 330 318 313 311 323 330 287 185 177 180 196 215 235 249 259 254 256 240 126 16 341 354 19 13 355 192 191 330 309 339 11 13 13 34 42
323 323 322 322 321 320 318 315 312 309 305 302 296 289 286 285 284 279 267 256 252 257 263 260 253 256 261 265 270 277 288 291 292 303 296 298 324 324 318 343 353 329 325 343 328 330 337 324 326 330 322 333 351 328 314 310 305 309 289 209 175 168 202 202 207 240 256 248 254 247 156 356 351 8 30 24 26 142 38 0 343 5 26 16 14 33 34
327 327 327 327 325 324 322 318 314 311 308 306 300 292 289 291 289 280 272 268 262 260 268 273 266 262 260 259 262 268 274 278 283 293 297 298 310 320 315 303 308 306 323 354 327 338 2 329 320 341 337 324 326 332 334 327 300 275 289 302 312 311 239 206 193 218 241 235 248 3 242 309 2 26 41 42 44 43 41 32 1 1 22 22 17 24 21
330 330 330 329 328 327 324 320 316 313 311 309 302 294 292 294 296 291 279 264 256 256 267 279 278 272 266 260 260 261 262 269 277 282 287 293 296 295 288 291 297 302 335 351 319 301 343 331 317 334 334 315 325 331 322 307 293 190 180 288 315 348 355 336 286 269 278 277 292 318 285 304 23 34 25 27 32 15 23 41 20 1 15 21 15 13 10
332 333 333 331 329 327 323 320 317 313 311 307 299 292 289 290 294 295 279 255 255 266 275 276 272 272 269 265 265 264 260 263 269 270 272 278 284 286 288 302 317 318 329 359 353 318 327 327 317 327 329 323 332 328 304 289 308 357 339 295 305 321 318 303 289 291 305 300 264 255 283 323 35 31 3 357 2 357 11 32 26 7 4 7 9 10 7
333 333 332 330 329 327 323 320 316 310 305 300 293 289 286 284 288 289 272 248 250 265 276 271 261 262 268 272 275 271 258 254 260 265 261 257 267 279 292 326 336 329 333 350 345 317 310 312 308 312 314 322 332 317 300 310 2 15 341 299 284 320 332 310 284 281 299 296 240 256 317 329 354 8 349 334 327 343 6 16 14 2 349 347 357 2 1
333 332 331 330 329 328 326 322 316 312 307 301 294 289 283 282 286 282 258 240 244 256 271 273 266 266 270 274 272 265 258 257 258 257 249 243 253 268 280 301 314 314 316 325 322 311 310 312 307 308 306 307 313 297 297 319 335 332 325 294 275 340 -0 328 287 274 267 263 267 297 314 313 313 325 329 314 310 328 354 358 351 343 333 335 344 347 350
333 332 331 331 332 331 331 330 328 328 328 320 308 297 285 291 296 278 247 232 235 245 258 275 285 288 278 267 265 261 259 258 249 243 246 246 250 262 275 286 295 298 300 305 307 306 307 304 297 303 301 295 302 297 294 307 305 293 291 276 268 289 308 296 290 294 279 263 267 280 292 295 293 288 283 290 307 324 333 337 338 330 324 329 333 334 339
333 332 332 333 336 338 342 344 343 344 346 346 0 59 68 2 311 271 237 218 213 229 251 268 293 312 295 275 274 267 254 248 240 236 244 253 257 265 273 278 284 291 297 300 300 295 293 293 295 297 307 323 321 301 286 292 292 281 278 272 263 267 272 266 270 277 270 260 267 279 286 285 281 277 279 297 323 325 316 318 325 326 325 327 328 328 330
333 332 334 338 344 349 350 351 353 359 7 25 74 86 70 39 26 17 250 222 219 253 306 306 305 308 302 289 285 270 244 235 234 239 245 254 261 265 268 272 278 285 289 293 299 297 288 292 302 304 317 338 331 298 292 297 286 269 272 274 266 269 278 278 272 272 275 276 281 290 296 290 285 287 289 302 320 320 312 311 315 318 322 325 326 326 325
333 335 340 349 357 357 356 359 7 19 31 47 68 81 77 48 29 24 21 210 215 243 291 307 304 302 311 319 317 281 241 228 232 241 246 253 257 258 262 268 272 278 285 289 292 294 292 294 297 298 309 325 321 299 300 299 281 274 287 290 284 282 281 279 276 276 277 279 284 291 293 288 290 295 293 291 300 307 304 304 306 309 313 316 317 316 316
338 343 353 3 2 359 3 12 23 39 49 39 19 12 151 90 22 4 9 93 187 217 261 302 307 309 320 322 307 268 240 229 234 241 243 248 253 254 259 265 267 271 279 280 279 286 297 302 298 299 315 330 330 301 292 298 289 286 295 300 306 313 310 303 298 292 284 277 277 282 284 283 287 293 291 285 286 290 291 292 295 299 305 310 310 308 307
345 356 6 8 7 12 24 31 41 52 50 33 2 326 303 51 2 347 1 92 155 184 228 278 283 287 303 325 333 300 257 231 238 246 245 249 253 253 255 260 263 266 268 270 279 286 289 295 297 300 318 338 341 295 289 302 291 283 297 311 319 322 320 313 308 305 300 291 282 279 277 277 277 277 276 273 272 275 278 278 279 285 292 298 302 302 301
355 10 17 18 24 38 45 42 44 52 48 37 31 36 40 358 297 299 106 132 141 151 271 289 286 286 300 22 26 334 285 240 244 254 252 253 257 258 255 252 250 256 264 273 288 294 284 288 295 297 311 331 338 306 288 288 279 287 305 313 313 310 307 303 298 296 294 289 284 278 271 267 266 264 264 265 266 267 269 268 268 272 278 284 289 291 292
9 21 28 35 43 51 49 41 41 44 39 27 27 39 48 50 317 176 143 135 126 117 304 305 308 315 343 66 51 341 317 296 279 270 261 259 258 254 254 252 249 255 263 263 267 290 303 313 318 307 309 318 321 293 278 273 277 294 305 308 306 303 300 297 293 289 284 279 274 268 263 261 261 260 261 261 260 258 258 259 260 262 266 272 276 277 280
25 31 34 42 45 44 43 41 41 40 32 19 13 19 32 51 68 99 124 116 87 74 23 341 328 318 322 334 113 341 349 359 346 281 265 262 250 239 250 260 257 259 262 256 261 285 306 322 324 310 305 300 274 261 274 280 293 302 303 301 299 296 294 291 287 281 276 271 265 259 258 259 260 259 258 258 258 255 254 254 256 257 261 264 265 267 272
40 32 33 43 41 39 37 35 35 36 31 13 353 357 9 27 54 79 92 87 71 76 27 2 354 327 325 334 89 32 359 356 318 259 283 317 196 209 217 180 176 231 268 296 301 296 295 308 310 305 300 277 240 241 264 289 299 300 295 292 292 290 286 283 280 275 270 266 260 255 253 252 252 251 251 252 252 252 251 252 252 253 256 258 257 258 264
43 24 27 27 21 29 32 25 21 21 2 323 322 334 343 352 26 68 79 75 69 83 71 338 346 354 343 344 9 348 341 344 105 96 47 49 96 151 105 103 152 194 261 279 283 294 296 299 300 290 283 270 251 270 289 294 293 290 286 286 289 288 281 278 279 276 269 263 257 253 249 246 245 245 245 246 246 246 245 247 247 248 251 253 253 254 259
33 17 20 9 355 14 31 13 7 5 352 336 328 322 320 330 359 47 80 69 53 60 73 18 20 19 358 307 314 334 342 0 20 26 50 48 66 123 104 83 124 165 16 303 284 300 299 290 281 267 254 260 283 297 302 300 297 297 298 300 305 307 301 292 285 275 263 257 253 248 244 242 240 240 241 242 241 240 240 242 242 243 246 249 250 252 256
23 16 27 21 6 9 13 354 353 354 353 346 336 324 310 301 294 212 182 158 56 49 43 35 35 21 338 305 350 6 3 1 7 22 47 31 13 156 144 67 28 1 353 328 303 306 302 269 244 263 262 271 292 307 317 322 324 329 332 333 336 339 336 325 303 271 251 243 242 240 237 236 235 235 235 236 236 235 236 237 238 240 243 244 246 249 252
7 6 30 34 15 12 15 358 347 344 342 337 329 316 261 230 227 193 159 148 113 84 58 28 30 23 344 329 29 34 20 3 27 42 45 27 19 36 94 28 9 342 0 18 346 334 338 323 263 293 293 294 313 331 345 349 348 351 355 354 354 357 2 7 2 320 255 242 239 237 233 230 230 230 231 233 234 235 235 236 235 236 239 241 241 242 243
1 353 25 43 31 8 7 1 350 344 341 329 307 275 230 216 227 65 122 125 81 76 61 3 2 30 20 347 31 44 37 33 47 49 44 39 31 3 347 4 329 343 20 23 355 349 0 351 327 336 341 334 338 347 356 358 358 2 5 4 4 8 17 26 31 29 8 275 248 242 237 232 228 228 229 231 231 232 233 233 232 232 234 237 237 235 236
30 15 17 31 24 336 336 341 341 338 332 324 312 297 289 7 36 16 5 23 46 59 36 339 308 180 119 336 331 38 56 59 54 309 14 62 54 338 21 28 288 338 39 10 341 342 3 357 0 5 348 343 347 351 357 1 4 8 12 12 11 13 21 30 35 36 34 30 6 262 243 234 230 230 230 229 230 232 232 229 228 227 227 228 228 227 228
38 33 7 1 350 307 295 305 317 322 325 331 328 307 320 12 34 14 3 20 27 32 31 357 331 325 40 354 330 340 36 84 223 257 288 89 96 7 30 36 331 22 38 354 333 351 23 9 10 8 344 346 354 357 357 359 4 10 16 18 16 17 23 29 33 35 36 37 37 33 11 247 235 235 234 233 233 233 229 224 222 220 219 219 220 221 223
26 16 1 353 347 319 282 293 315 317 297 327 336 328 340 9 31 32 12 10 358 356 46 69 314 283 240 248 283 306 341 325 269 258 293 82 119 349 27 42 32 27 22 343 344 25 32 14 11 3 349 352 360 2 -0 1 4 9 15 19 21 24 27 29 31 34 36 39 42 45 47 49 57 218 228 229 225 220 216 214 213 210 208 209 210 210 210
14 2 351 340 329 317 294 312 330 343 6 1 1 1 1 8 14 13 22 21 351 344 14 31 356 324 299 234 232 199 182 274 269 265 41 63 71 30 23 37 30 19 18 14 16 28 29 18 13 8 3 1 3 4 4 5 7 10 15 21 25 29 31 31 32 32 34 37 43 47 49 52 60 73 86 111 176 196 202 203 200 197 196 198 197 190 180
3 347 337 320 315 333 354 343 340 2 21 11 1 3 4 9 11 9 15 22 314 317 2 13 353 334 331 331 282 185 155 198 222 192 40 41 48 36 29 38 34 19 20 24 19 19 24 21 14 10 8 6 4 4 6 8 9 11 16 22 27 31 33 34 34 34 33 34 39 44 47 51 56 61 64 67 77 101 133 160 172 168 163 162 161 155 147
346 343 349 346 334 355 25 32 3 11 21 9 3 8 8 7 10 8 2 353 336 332 7 19 334 316 321 344 11 35 31 24 35 47 20 24 45 43 34 38 36 19 17 24 17 11 14 18 13 9 7 7 6 5 7 9 11 14 18 23 27 32 35 36 37 38 36 35 38 41 44 48 52 56 58 60 65 74 87 100 109 113 113 112 112 117 122
336 332 347 20 5 6 28 34 17 17 21 14 12 15 12 6 7 6 360 351 346 345 352 345 287 288 303 337 3 21 30 30 31 23 12 23 49 43 28 31 35 21 13 16 12 357 1 12 12 8 7 8 10 9 8 10 12 15 18 22 26 31 35 38 40 42 40 39 40 41 42 45 49 52 55 58 61 67 76 84 86 86 86 85 86 93 103
353 330 329 10 30 19 17 13 10 21 25 19 14 12 10 7 8 6 0 353 348 345 343 341 325 303 308 342 356 4 15 22 27 25 15 19 42 43 25 20 25 23 11 8 9 1 359 6 9 9 8 11 13 12 11 11 11 13 16 21 24 29 34 38 42 45 44 43 43 43 43 46 49 50 51 56 59 62 69 77 80 79 77 76 76 80 87
21 6 0 9 24 24 13 7 8 21 23 18 14 10 7 7 10 6 359 353 348 344 344 350 352 348 351 357 359 10 17 15 15 25 26 25 36 42 30 10 7 10 10 9 17 17 7 5 9 11 10 10 13 14 13 12 12 13 14 18 21 25 30 36 41 45 47 47 47 47 47 48 50 50 51 54 56 58 63 71 74 74 73 74 73 74 78
43 39 25 16 14 12 5 3 11 21 16 13 14 10 3 4 7 4 355 349 348 348 353 2 6 7 11 9 4 19 26 17 10 26 36 31 29 33 39 30 6 350 345 357 9 14 14 11 11 11 10 10 13 15 13 12 13 13 13 15 19 23 27 32 37 43 47 49 50 51 51 51 51 52 53 55 57 58 61 66 68 69 69 70 71 71 74
31 47 41 29 21 16 8 5 10 13 7 9 12 7 360 1 3 356 347 347 350 354 3 10 7 7 20 20 9 3 4 4 14 34 36 31 26 22 25 25 5 343 345 360 5 10 15 17 14 12 11 10 10 12 14 14 13 13 14 15 17 21 24 28 32 38 45 50 52 52 53 53 53 54 56 58 59 60 61 64 66 67 68 68 68 69 71
7 27 43 38 27 20 17 14 11 4 2 8 10 3 358 3 2 351 347 353 0 2 6 11 12 15 23 13 0 349 349 8 33 40 31 30 37 24 353 346 350 348 351 -0 3 4 11 15 15 13 12 8 7 11 15 14 12 13 15 17 18 20 23 26 29 33 39 46 50 53 54 54 53 53 55 56 57 58 60 63 66 68 69 70 70 70 71